Terminal Aerodrome Forecast
Issued by NWS

Home | Current Version | Previous Version | Graphics & Text | Print | Product List | Glossary On
Versions: 1 2 3 4 5 6 7 8 9 10 11 12 13 14 15 16
000
FTUS43 KBIS 100500
TAFMOT
TAF
KMOT 100533Z 1006/1106 15006KT 6SM FU SKC
     FM101600 16013G22KT P6SM SCT120
     FM110000 18012KT P6SM VCTS BKN040CB
     FM110400 30007KT P6SM SCT060=

USA.gov is the U.S. government's official web portal to all federal, state and local government web resources and services.